This demonstration page uses our WeatherBlox Daily Observations layout. Learn more.

Left ArrowRight Arrow

36.17497, -115.13722

Hourly Observations for August 15, 2019

Temp ( °F °C ) Dew Point ( °F °C ) Humidity (%) Winds ( mph kmh ) Pressure ( in mb ) Visibility ( mi km ) Precip ( " mm )
12:53 am 00:53 Clear 89 31.7 35 1.7 15 15 NW 6 9 29.87 1012 10 16 0.00 0.00
1:53 am 01:53 Clear 87 30.6 36 2.2 16 16 WNW 5 7 29.86 1011 10 16 0.00 0.00
2:53 am 02:53 Clear 85 29.4 36 2.2 17 17 Calm 29.87 1012 10 16 0.00 0.00
3:53 am 03:53 Clear 84 28.9 31 -0.6 15 15 N 5 7 29.88 1012 10 16 0.00 0.00
4:53 am 04:53 Clear 81 27.2 33 0.6 18 18 Calm 29.89 1012 10 16 0.00 0.00
5:53 am 05:53 Clear 81 27.2 34 1.1 18 18 NW 6 9 29.91 1013 10 16 0.00 0.00
6:53 am 06:53 Sunny 83 28.3 33 0.6 17 17 NW 8 13 29.92 1013 10 16 0.00 0.00
7:53 am 07:53 Sunny 88 31.1 34 1.1 15 15 NW 7 11 29.93 1014 10 16 0.00 0.00
8:53 am 08:53 Sunny 94 34.4 28 -2.2 9 9 NNW 7 11 29.92 1013 10 16 0.00 0.00
9:53 am 09:53 Sunny 96 35.6 30 -1.1 10 10 NW 5 7 29.93 1014 10 16 0.00 0.00
11:53 am 11:53 Sunny 103 39.4 30 -1.1 8 8 Calm 29.91 1013 10 16 0.00 0.00
12:53 pm 12:53 Sunny 105 40.6 30 -1.1 7 7 SE 6 9 29.88 1012 10 16 0.00 0.00
1:53 pm 13:53 Sunny 107 41.7 25 -3.9 5 5 SSE 10 17 29.85 1011 10 16 0.00 0.00
2:53 pm 14:53 Sunny 108 42.2 23 -5 5 5 SSE 15 24 29.81 1010 10 16 0.00 0.00
3:53 pm 15:53 Sunny 108 42.2 22 -5.6 5 5 S 10 17 29.78 1009 10 16 0.00 0.00
4:53 pm 16:53 Sunny 109 42.8 18 -7.8 4 4 SW 9 15 29.77 1008 10 16 0.00 0.00
5:53 pm 17:53 Sunny 107 41.7 18 -7.8 4 4 SSE 6 9 29.75 1008 10 16 0.00 0.00
6:53 pm 18:53 Sunny 106 41.1 21 -6.1 5 5 W 9 15 29.75 1007 10 16 0.00 0.00
7:53 pm 19:53 Clear 103 39.4 24 -4.4 6 6 W 9 15 29.75 1007 10 16 0.00 0.00
8:53 pm 20:53 Clear 100 37.8 23 -5 6 6 W 9 15 29.76 1008 10 16 0.00 0.00
9:53 pm 21:53 Clear 99 37.2 23 -5 6 6 VRB 7 11 29.77 1008 10 16 0.00 0.00
10:53 pm 22:53 Clear 95 35 24 -4.4 8 8 SSW 5 7 29.77 1008 10 16 0.00 0.00
11:53 pm 23:53 Clear 93 33.9 25 -3.9 8 8 SW 7 11 29.78 1008 10 16 0.00 0.00

Powered by AerisWeather